Time,TemperatureF,DewpointF,PressureIn,WindDirection,WindDirectionDegrees,WindSpeedMPH,WindSpeedGustMPH,Humidity,HourlyPrecipIn,Conditions,Clouds,dailyrainin,SoftwareType,DateUTC
2013-06-18 00:02:00,72.0,71.0,30.01,WSW,252,0.0,2.0,97,0.05,,,0.71,,2013-06-18 04:02:00,
2013-06-18 00:12:00,72.0,71.0,30.02,NE,41,0.0,2.0,97,0.06,,,0.72,,2013-06-18 04:12:00,
2013-06-18 00:23:00,72.0,71.0,30.02,NE,43,0.0,2.0,97,0.06,,,0.72,,2013-06-18 04:23:00,
2013-06-18 00:34:00,72.0,71.0,30.02,NE,43,0.0,1.0,97,0.07,,,0.73,,2013-06-18 04:34:00,
2013-06-18 00:43:00,72.0,71.0,30.03,NE,43,0.0,0.0,97,0.04,,,0.73,,2013-06-18 04:43:00,
2013-06-18 00:53:00,72.0,71.0,30.03,NE,43,0.0,0.0,97,0.04,,,0.74,,2013-06-18 04:53:00,
2013-06-18 01:02:00,72.0,71.0,30.02,SSW,204,0.0,2.0,97,0.03,,,0.75,,2013-06-18 05:02:00,
2013-06-18 01:12:00,71.0,70.0,30.02,WSW,238,0.0,2.0,97,0.03,,,0.75,,2013-06-18 05:12:00,
2013-06-18 01:22:00,71.0,70.0,30.01,WSW,237,0.0,2.0,97,0.05,,,0.77,,2013-06-18 05:22:00,
2013-06-18 01:34:00,71.0,70.0,30.00,NNE,20,0.0,3.0,97,0.07,,,0.80,,2013-06-18 05:34:00,
2013-06-18 01:43:00,71.0,70.0,29.99,SW,222,0.0,3.0,97,0.13,,,0.86,,2013-06-18 05:43:00,
2013-06-18 01:53:00,71.0,70.0,29.98,ENE,74,0.0,3.0,97,0.13,,,0.87,,2013-06-18 05:53:00,
2013-06-18 02:02:00,71.0,70.0,29.97,NNW,329,0.0,2.0,97,0.15,,,0.89,,2013-06-18 06:02:00,
2013-06-18 02:11:00,71.0,70.0,29.95,NNW,330,0.0,1.0,97,0.13,,,0.89,,2013-06-18 06:11:00,
2013-06-18 02:23:00,71.0,70.0,29.94,NE,56,0.0,3.0,97,0.10,,,0.89,,2013-06-18 06:23:00,
2013-06-18 02:32:00,71.0,70.0,29.93,East,96,1.0,3.0,97,0.08,,,0.89,,2013-06-18 06:32:00,
2013-06-18 02:43:00,71.0,70.0,29.92,WSW,249,0.0,3.0,97,0.04,,,0.90,,2013-06-18 06:43:00,
2013-06-18 02:52:00,71.0,70.0,29.92,NNE,28,0.0,2.0,97,0.03,,,0.90,,2013-06-18 06:52:00,
2013-06-18 03:02:00,71.0,70.0,29.92,ENE,77,0.0,1.0,97,0.01,,,0.90,,2013-06-18 07:02:00,
2013-06-18 03:12:00,71.0,70.0,29.92,NNW,330,0.0,1.0,97,0.01,,,0.90,,2013-06-18 07:12:00,
2013-06-18 03:22:00,71.0,70.0,29.93,NE,43,0.0,1.0,97,0.01,,,0.90,,2013-06-18 07:22:00,
2013-06-18 03:33:00,71.0,70.0,29.93,ENE,72,0.0,1.0,97,0.01,,,0.90,,2013-06-18 07:33:00,
2013-06-18 03:43:00,71.0,70.0,29.93,ENE,72,0.0,0.0,97,0.00,,,0.90,,2013-06-18 07:43:00,
2013-06-18 03:53:00,71.0,70.0,29.93,ENE,74,0.0,1.0,97,0.00,,,0.90,,2013-06-18 07:53:00,
2013-06-18 04:02:00,71.0,70.0,29.94,ENE,74,0.0,0.0,97,0.00,,,0.90,,2013-06-18 08:02:00,
2013-06-18 04:11:00,71.0,70.0,29.94,ENE,74,0.0,0.0,97,0.00,,,0.90,,2013-06-18 08:11:00,
2013-06-18 04:23:00,70.0,69.0,29.93,ENE,74,0.0,0.0,97,0.00,,,0.90,,2013-06-18 08:23:00,
2013-06-18 04:33:00,70.0,69.0,29.94,ENE,74,0.0,1.0,97,0.00,,,0.90,,2013-06-18 08:33:00,
2013-06-18 04:43:00,70.0,69.0,29.94,ENE,74,0.0,0.0,97,0.00,,,0.90,,2013-06-18 08:43:00,
2013-06-18 04:52:00,70.0,69.0,29.94,ENE,74,0.0,0.0,97,0.00,,,0.90,,2013-06-18 08:52:00,
2013-06-18 05:02:00,71.0,70.0,29.94,ENE,75,0.0,0.0,98,0.00,,,0.90,,2013-06-18 09:02:00,
2013-06-18 05:12:00,71.0,70.0,29.94,ENE,74,0.0,1.0,98,0.00,,,0.90,,2013-06-18 09:12:00,
2013-06-18 05:22:00,71.0,70.0,29.94,WSW,240,1.0,3.0,98,0.00,,,0.90,,2013-06-18 09:22:00,
2013-06-18 05:34:00,71.0,70.0,29.94,North,10,0.0,0.0,98,0.00,,,0.90,,2013-06-18 09:34:00,
2013-06-18 05:43:00,71.0,70.0,29.94,NNE,14,0.0,0.0,98,0.00,,,0.90,,2013-06-18 09:43:00,
2013-06-18 05:53:00,71.0,70.0,29.95,NNE,15,0.0,0.0,98,0.00,,,0.90,,2013-06-18 09:53:00,
2013-06-18 06:02:00,71.0,70.0,29.94,West,274,0.0,0.0,98,0.00,,,0.90,,2013-06-18 10:02:00,
2013-06-18 06:11:00,71.0,70.0,29.94,West,274,0.0,0.0,98,0.00,,,0.90,,2013-06-18 10:11:00,
2013-06-18 06:22:00,71.0,70.0,29.95,West,274,0.0,0.0,98,0.00,,,0.90,,2013-06-18 10:22:00,
2013-06-18 06:33:00,71.0,70.0,29.95,West,274,0.0,0.0,98,0.00,,,0.90,,2013-06-18 10:33:00,
2013-06-18 06:43:00,71.0,70.0,29.95,West,274,0.0,0.0,98,0.00,,,0.90,,2013-06-18 10:43:00,
2013-06-18 06:53:00,71.0,70.0,29.95,West,274,0.0,0.0,98,0.00,,,0.90,,2013-06-18 10:53:00,
2013-06-18 07:02:00,71.0,70.0,29.95,West,274,0.0,0.0,98,0.00,,,0.90,,2013-06-18 11:02:00,
2013-06-18 07:11:00,71.0,70.0,29.96,SW,233,0.0,0.0,98,0.00,,,0.90,,2013-06-18 11:11:00,
2013-06-18 07:22:00,71.0,70.0,29.96,WNW,287,0.0,1.0,98,0.00,,,0.90,,2013-06-18 11:22:00,
2013-06-18 07:32:00,71.0,70.0,29.96,SW,222,0.0,2.0,98,0.00,,,0.90,,2013-06-18 11:32:00,
2013-06-18 07:43:00,71.0,70.0,29.96,SW,231,0.0,1.0,98,0.00,,,0.90,,2013-06-18 11:43:00,
2013-06-18 07:52:00,71.0,70.0,29.96,SSW,212,0.0,1.0,98,0.00,,,0.90,,2013-06-18 11:52:00,
2013-06-18 08:01:00,72.0,71.0,29.96,SW,214,0.0,1.0,98,0.00,,,0.90,,2013-06-18 12:01:00,
2013-06-18 08:11:00,72.0,71.0,29.96,West,267,0.0,2.0,98,0.00,,,0.90,,2013-06-18 12:11:00,
2013-06-18 08:22:00,72.0,71.0,29.97,WSW,253,1.0,4.0,97,0.00,,,0.90,,2013-06-18 12:22:00,
2013-06-18 08:33:00,73.0,72.0,29.96,SW,232,2.0,4.0,97,0.00,,,0.90,,2013-06-18 12:33:00,
2013-06-18 08:43:00,74.0,73.0,29.96,SW,232,0.0,1.0,96,0.00,,,0.90,,2013-06-18 12:43:00,
2013-06-18 08:52:00,74.0,72.0,29.96,SW,232,0.0,1.0,95,0.00,,,0.90,,2013-06-18 12:52:00,
2013-06-18 09:02:00,74.0,72.0,29.96,SW,226,0.0,1.0,95,0.00,,,0.90,,2013-06-18 13:02:00,
2013-06-18 09:12:00,75.0,73.0,29.96,WSW,240,0.0,2.0,94,0.00,,,0.90,,2013-06-18 13:12:00,
2013-06-18 09:22:00,75.0,73.0,29.97,WSW,238,0.0,3.0,94,0.00,,,0.90,,2013-06-18 13:22:00,
2013-06-18 09:33:00,76.0,74.0,29.97,WSW,238,1.0,5.0,92,0.00,,,0.90,,2013-06-18 13:33:00,
2013-06-18 09:43:00,77.0,74.0,29.97,SW,233,1.0,8.0,91,0.00,,,0.90,,2013-06-18 13:43:00,
2013-06-18 09:52:00,78.0,75.0,29.97,SSE,153,1.0,3.0,90,0.00,,,0.90,,2013-06-18 13:52:00,
2013-06-18 10:02:00,78.0,74.0,29.97,North,354,2.0,5.0,88,0.00,,,0.90,,2013-06-18 14:02:00,
2013-06-18 10:11:00,77.0,74.0,29.98,SW,222,1.0,9.0,89,0.00,,,0.90,,2013-06-18 14:11:00,
2013-06-18 10:22:00,78.0,74.0,29.97,West,276,1.0,5.0,89,0.00,,,0.90,,2013-06-18 14:22:00,
2013-06-18 10:33:00,78.0,75.0,29.97,West,266,1.0,5.0,90,0.00,,,0.90,,2013-06-18 14:33:00,
2013-06-18 10:43:00,78.0,74.0,29.96,South,191,1.0,10.0,88,0.00,,,0.90,,2013-06-18 14:43:00,
2013-06-18 10:53:00,78.0,74.0,29.96,SW,226,1.0,5.0,89,0.00,,,0.90,,2013-06-18 14:53:00,
2013-06-18 11:02:00,78.0,75.0,29.96,SW,222,1.0,4.0,90,0.00,,,0.90,,2013-06-18 15:02:00,
2013-06-18 11:11:00,80.0,76.0,29.96,WSW,256,0.0,8.0,88,0.00,,,0.90,,2013-06-18 15:11:00,
2013-06-18 11:22:00,80.0,75.0,29.96,SSW,211,2.0,7.0,86,0.00,,,0.90,,2013-06-18 15:22:00,
2013-06-18 11:33:00,80.0,75.0,29.96,SSW,207,2.0,9.0,86,0.00,,,0.90,,2013-06-18 15:33:00,
2013-06-18 11:43:00,81.0,75.0,29.96,WSW,238,2.0,5.0,83,0.00,,,0.90,,2013-06-18 15:43:00,
2013-06-18 11:53:00,82.0,77.0,29.96,SW,223,1.0,6.0,84,0.00,,,0.90,,2013-06-18 15:53:00,
2013-06-18 12:01:00,82.0,77.0,29.96,SSE,166,1.0,6.0,84,0.00,,,0.90,,2013-06-18 16:01:00,
2013-06-18 12:11:00,82.0,77.0,29.96,WSW,243,0.0,4.0,85,0.00,,,0.90,,2013-06-18 16:11:00,
2013-06-18 12:23:00,83.0,77.0,29.95,ESE,113,2.0,5.0,82,0.00,,,0.90,,2013-06-18 16:23:00,
2013-06-18 12:33:00,83.0,77.0,29.95,NE,50,1.0,3.0,82,0.00,,,0.90,,2013-06-18 16:33:00,
2013-06-18 12:43:00,84.0,76.0,29.95,SSE,158,3.0,9.0,78,0.00,,,0.90,,2013-06-18 16:43:00,
2013-06-18 12:53:00,84.0,78.0,29.95,SW,235,1.0,9.0,81,0.00,,,0.90,,2013-06-18 16:53:00,
2013-06-18 13:02:00,82.0,76.0,29.95,SW,233,1.0,3.0,83,0.00,,,0.90,,2013-06-18 17:02:00,
2013-06-18 13:12:00,83.0,77.0,29.94,SW,225,1.0,4.0,82,0.00,,,0.90,,2013-06-18 17:12:00,
2013-06-18 13:22:00,83.0,78.0,29.94,West,264,1.0,4.0,84,0.00,,,0.90,,2013-06-18 17:22:00,
2013-06-18 13:33:00,84.0,78.0,29.93,WSW,246,2.0,4.0,81,0.00,,,0.90,,2013-06-18 17:33:00,
2013-06-18 13:43:00,86.0,78.0,29.93,SSW,203,2.0,13.0,78,0.00,,,0.90,,2013-06-18 17:43:00,
2013-06-18 13:53:00,86.0,78.0,29.92,South,172,2.0,7.0,78,0.00,,,0.90,,2013-06-18 17:53:00,
2013-06-18 14:02:00,86.0,77.0,29.92,SW,233,3.0,6.0,75,0.00,,,0.90,,2013-06-18 18:02:00,
2013-06-18 14:12:00,86.0,77.0,29.91,SW,231,3.0,10.0,75,0.00,,,0.90,,2013-06-18 18:12:00,
2013-06-18 14:22:00,86.0,76.0,29.91,SW,222,3.0,8.0,73,0.00,,,0.90,,2013-06-18 18:22:00,
2013-06-18 14:33:00,86.0,77.0,29.91,WSW,256,3.0,11.0,75,0.00,,,0.90,,2013-06-18 18:33:00,
2013-06-18 14:42:00,86.0,78.0,29.90,SW,231,2.0,7.0,76,0.00,,,0.90,,2013-06-18 18:42:00,
2013-06-18 14:53:00,86.0,77.0,29.90,WSW,243,3.0,13.0,75,0.00,,,0.90,,2013-06-18 18:53:00,
2013-06-18 15:02:00,87.0,77.0,29.90,WSW,240,4.0,11.0,73,0.00,,,0.90,,2013-06-18 19:02:00,
2013-06-18 15:12:00,87.0,78.0,29.90,West,263,1.0,8.0,75,0.00,,,0.90,,2013-06-18 19:12:00,
2013-06-18 15:22:00,88.0,78.0,29.89,WSW,245,2.0,6.0,73,0.00,,,0.90,,2013-06-18 19:22:00,
2013-06-18 15:33:00,88.0,79.0,29.88,SW,219,2.0,9.0,75,0.00,,,0.90,,2013-06-18 19:33:00,
2013-06-18 15:43:00,87.0,77.0,29.88,SW,233,2.0,6.0,73,0.00,,,0.90,,2013-06-18 19:43:00,
2013-06-18 15:52:00,85.0,78.0,29.89,NNE,13,1.0,4.0,79,0.00,,,0.90,,2013-06-18 19:52:00,
2013-06-18 16:02:00,84.0,78.0,29.89,SSW,212,4.0,17.0,81,0.04,,,0.94,,2013-06-18 20:02:00,
2013-06-18 16:11:00,79.0,75.0,29.91,SW,234,2.0,4.0,89,0.10,,,1.00,,2013-06-18 20:11:00,
2013-06-18 16:23:00,76.0,73.0,29.93,WNW,302,0.0,6.0,90,0.29,,,1.19,,2013-06-18 20:23:00,
2013-06-18 16:33:00,74.0,72.0,29.91,ESE,116,0.0,5.0,93,0.42,,,1.32,,2013-06-18 20:33:00,
2013-06-18 16:43:00,74.0,72.0,29.90,ESE,116,0.0,1.0,94,0.43,,,1.33,,2013-06-18 20:43:00,
2013-06-18 16:52:00,74.0,72.0,29.89,SW,214,0.0,1.0,95,0.43,,,1.33,,2013-06-18 20:52:00,
2013-06-18 17:02:00,74.0,73.0,29.89,SW,214,0.0,1.0,96,0.39,,,1.33,,2013-06-18 21:02:00,
2013-06-18 17:11:00,75.0,74.0,29.88,SW,214,0.0,1.0,96,0.34,,,1.33,,2013-06-18 21:11:00,
2013-06-18 17:23:00,76.0,75.0,29.88,WSW,238,1.0,3.0,97,0.17,,,1.33,,2013-06-18 21:23:00,
2013-06-18 17:33:00,78.0,75.0,29.88,SW,229,3.0,8.0,92,0.01,,,1.33,,2013-06-18 21:33:00,
2013-06-18 17:43:00,79.0,76.0,29.86,WSW,240,1.0,4.0,90,0.01,,,1.33,,2013-06-18 21:43:00,
2013-06-18 17:52:00,79.0,75.0,29.85,WNW,297,0.0,1.0,89,0.00,,,1.33,,2013-06-18 21:52:00,
2013-06-18 18:02:00,79.0,75.0,29.85,WSW,253,0.0,7.0,87,0.00,,,1.33,,2013-06-18 22:02:00,
2013-06-18 18:11:00,77.0,73.0,29.85,WSW,249,1.0,5.0,88,0.00,,,1.33,,2013-06-18 22:11:00,
2013-06-18 18:22:00,77.0,74.0,29.85,West,262,1.0,3.0,90,0.00,,,0.70,,2013-06-18 22:22:00,
2013-06-18 18:34:00,77.0,74.0,29.86,WNW,283,0.0,2.0,92,0.00,,,0.70,,2013-06-18 22:34:00,
2013-06-18 18:43:00,77.0,74.0,29.85,NW,311,1.0,6.0,92,0.00,,,0.70,,2013-06-18 22:43:00,
2013-06-18 18:53:00,77.0,74.0,29.85,West,259,0.0,2.0,92,0.00,,,0.70,,2013-06-18 22:53:00,
2013-06-18 19:02:00,77.0,74.0,29.85,ENE,63,1.0,2.0,92,0.00,,,0.70,,2013-06-18 23:02:00,
2013-06-18 19:11:00,78.0,74.0,29.85,SW,225,1.0,4.0,89,0.00,,,0.70,,2013-06-18 23:11:00,
2013-06-18 19:23:00,78.0,75.0,29.85,SW,232,1.0,2.0,90,0.00,,,0.67,,2013-06-18 23:23:00,
2013-06-18 19:37:00,78.0,75.0,29.85,SSW,195,0.0,2.0,90,0.00,,,0.67,,2013-06-18 23:37:00,
2013-06-18 19:46:00,77.0,74.0,29.86,West,280,0.0,3.0,92,0.00,,,0.67,,2013-06-18 23:46:00,
2013-06-18 19:53:00,77.0,74.0,29.86,WSW,256,0.0,3.0,92,0.00,,,0.67,,2013-06-18 23:53:00,
2013-06-18 20:02:00,77.0,74.0,29.87,SW,224,0.0,3.0,92,0.00,,,0.67,,2013-06-19 00:02:00,
2013-06-18 20:11:00,77.0,75.0,29.87,East,87,0.0,1.0,94,0.00,,,0.67,,2013-06-19 00:11:00,
2013-06-18 20:22:00,76.0,74.0,29.87,East,87,0.0,1.0,94,0.00,,,0.67,,2013-06-19 00:22:00,
2013-06-18 20:33:00,76.0,74.0,29.87,East,88,0.0,1.0,95,0.00,,,0.67,,2013-06-19 00:33:00,
2013-06-18 20:43:00,76.0,74.0,29.86,East,88,0.0,0.0,95,0.00,,,0.67,,2013-06-19 00:43:00,
2013-06-18 20:53:00,76.0,74.0,29.86,East,89,0.0,1.0,95,0.00,,,0.67,,2013-06-19 00:53:00,
2013-06-18 21:01:00,76.0,74.0,29.87,East,87,0.0,1.0,95,0.00,,,0.67,,2013-06-19 01:01:00,
2013-06-18 21:11:00,76.0,74.0,29.87,East,88,0.0,1.0,95,0.00,,,0.67,,2013-06-19 01:11:00,
2013-06-18 21:22:00,76.0,74.0,29.87,East,87,0.0,1.0,95,0.00,,,0.67,,2013-06-19 01:22:00,
2013-06-18 21:32:00,75.0,74.0,29.88,East,87,0.0,0.0,96,0.00,,,0.67,,2013-06-19 01:32:00,
2013-06-18 21:43:00,75.0,74.0,29.88,East,87,0.0,0.0,96,0.00,,,0.67,,2013-06-19 01:43:00,
2013-06-18 21:53:00,75.0,74.0,29.88,East,87,0.0,0.0,96,0.00,,,0.67,,2013-06-19 01:53:00,
2013-06-18 22:01:00,75.0,74.0,29.88,East,87,0.0,0.0,96,0.00,,,0.67,,2013-06-19 02:01:00,
2013-06-18 22:11:00,75.0,74.0,29.88,East,87,0.0,0.0,96,0.00,,,0.67,,2013-06-19 02:11:00,
2013-06-18 22:21:00,75.0,74.0,29.88,East,88,0.0,0.0,96,0.00,,,0.67,,2013-06-19 02:21:00,
2013-06-18 22:32:00,75.0,74.0,29.88,East,87,0.0,0.0,96,0.00,,,0.67,,2013-06-19 02:32:00,
2013-06-18 22:42:00,75.0,74.0,29.88,East,88,0.0,0.0,97,0.00,,,0.67,,2013-06-19 02:42:00,
2013-06-18 22:52:00,75.0,74.0,29.88,East,88,0.0,0.0,97,0.00,,,0.67,,2013-06-19 02:52:00,
2013-06-18 23:01:00,75.0,74.0,29.89,East,87,0.0,0.0,97,0.00,,,0.67,,2013-06-19 03:01:00,
2013-06-18 23:11:00,75.0,74.0,29.89,West,259,0.0,1.0,97,0.00,,,0.67,,2013-06-19 03:11:00,
2013-06-18 23:22:00,75.0,74.0,29.89,West,259,0.0,0.0,97,0.00,,,0.67,,2013-06-19 03:22:00,
2013-06-18 23:33:00,75.0,74.0,29.90,West,259,0.0,0.0,97,0.00,,,0.67,,2013-06-19 03:33:00,
2013-06-18 23:42:00,75.0,74.0,29.90,West,259,0.0,0.0,97,0.00,,,0.67,,2013-06-19 03:42:00,
2013-06-18 23:52:00,75.0,74.0,29.90,West,259,0.0,0.0,97,0.00,,,0.67,,2013-06-19 03:52:00,